This demonstration page uses our WeatherBlox Daily Observations layout. Learn more.

Left ArrowRight Arrow

39.95233, -75.16379

Hourly Observations for May 22, 2022

Temp ( °F °C ) Dew Point ( °F °C ) Humidity (%) Winds ( mph kmh ) Pressure ( in mb ) Visibility ( mi km ) Precip ( " mm )
12:54 am 00:54 Mostly Clear 79 26.1 68 20 69 69 SSW 10 17 30.04 1017 10 16 0.00 0.00
1:54 am 01:54 Partly Cloudy 80 26.7 69 20.6 69 69 SW 12 19 30.03 1017 10 16 0.00 0.00
2:54 am 02:54 Mostly Cloudy 78 25.6 69 20.6 74 74 SW 5 7 30.01 1016 10 16 0.00 0.00
3:54 am 03:54 Mostly Cloudy 75 23.9 68 20 79 79 SSE 3 6 29.99 1016 10 16 0.00 0.00
4:54 am 04:54 Mostly Cloudy 77 25 67 19.4 71 71 SSW 7 11 30.01 1016 10 16 0.00 0.00
5:54 am 05:54 Mostly Cloudy 77 25 65 18.3 66 66 SW 8 13 30.01 1016 10 16 0.00 0.00
6:54 am 06:54 Mostly Cloudy 76 24.4 65 18.3 69 69 SW 10 17 30.04 1017 10 16 0.00 0.00
7:54 am 07:54 Mostly Cloudy 78 25.6 66 18.9 67 67 SW 12 19 30.05 1018 10 16 0.00 0.00
8:54 am 08:54 Mostly Cloudy 79 26.1 67 19.4 67 67 WSW 10 17 30.06 1018 10 16 0.00 0.00
9:54 am 09:54 Mostly Cloudy 81 27.2 68 20 65 65 SW 8 13 30.05 1018 10 16 0.00 0.00
10:54 am 10:54 Mostly Cloudy 83 28.3 69 20.6 63 63 WSW 9 15 30.05 1018 10 16 0.00 0.00
11:54 am 11:54 Partly Cloudy 84 28.9 69 20.6 61 61 SSW 6 9 30.03 1017 10 16 0.00 0.00
12:54 pm 12:54 Mostly Sunny 87 30.6 69 20.6 55 55 SSW 8 13 30.02 1017 10 16 0.00 0.00
1:54 pm 13:54 Mostly Sunny 88 31.1 68 20 52 52 SW 7 11 29.98 1015 10 16 0.00 0.00
2:54 pm 14:54 Mostly Sunny 90 32.2 67 19.4 47 47 WSW 12 19 29.96 1015 10 16 0.00 0.00
3:54 pm 15:54 Partly Cloudy 91 32.8 66 18.9 44 44 WSW 16 26 29.96 1014 10 16 0.00 0.00
4:54 pm 16:54 Partly Cloudy 91 32.8 68 20 47 47 SW 12 19 29.93 1014 10 16 0.00 0.00
5:54 pm 17:54 Mostly Cloudy 89 31.7 67 19.4 48 48 SW 12 19 29.96 1014 10 16 0.00 0.00
6:28 pm 18:28 Mostly Cloudy 85 29.4 63 17.2 48 48 WNW 21 33 30.01 1016 10 16 0.00 0.00
6:36 pm 18:36 Cloudy with Thunderstorms 83 28.3 63 17.2 51 51 WNW 17 28 30.01 1016 10 16 0.00 0.00
6:43 pm 18:43 Cloudy with Thunderstorms 81 27.2 63 17.2 54 54 WNW 16 26 30.00 1016 7 11 0.00 0.00
6:54 pm 18:54 Cloudy with Thunderstorms 79 26.1 63 17.2 58 58 W 12 19 29.99 1016 7 11 0.01 0.25
7:12 pm 19:12 Cloudy with Light Rain 79 26.1 64 17.8 60 60 WSW 17 28 30.01 1016 10 16 0.00 0.00
7:54 pm 19:54 Mostly Cloudy with Light Rain 75 23.9 67 19.4 76 76 SW 16 26 29.98 1015 10 16 0.00 0.00
8:54 pm 20:54 Mostly Cloudy 75 23.9 67 19.4 76 76 WNW 13 20 29.98 1015 10 16 0.00 0.00
9:54 pm 21:54 Mostly Cloudy with Light Rain 74 23.3 65 18.3 74 74 WSW 13 20 30.06 1018 10 16 0.00 0.00
10:54 pm 22:54 Cloudy 74 23.3 66 18.9 76 76 WNW 7 11 30.06 1018 10 16 0.00 0.00
11:54 pm 23:54 Cloudy with Light Rain 73 22.8 68 20 84 84 SW 9 15 30.09 1019 10 16 0.00 0.00

Powered by AerisWeather